Location: Stake Lake Observatory
(50.5113°N, 120.4813°W)
Time: 17:15:09
(UTC-07:00)

Envisat - Pass Details

Date: 21 May 2022
Orbit: 764 x 765 km, 98.2° (Epoch: 28 June)

Event Time Altitude Azimuth Distance (km) Brightness Sun altitude
Rises 04:14:47 0° 29° (NNE) 3,242 8.0 -7.1°
Reaches altitude 10° 04:18:14 10° 54° (NE) 2,308 7.2 -6.7°
Maximum altitude 04:20:56 14° 86° (E) 2,015 6.0 -6.4°
Drops below altitude 10° 04:23:38 10° 118° (ESE) 2,298 5.7 -6.1°
Sets 04:27:03 0° 143° (SE) 3,217 6.2 -5.7°
